GW3513 Weather Reports


Display with metric or nautical units.
time (UTC)temp
F
wind
direction
speed
MPH
gust
MPH
rain 1hr
in
rain 24hr
in
rain mn
in
humidity
%
barometer
mb
20260906183010 125 161 0.0 0.0 0.00 0.00 0.00 22 1017.0
20260906182505 125 161 0.0 0.0 0.00 0.00 0.00 21 1017.1
20260906182001 125 161 0.0 0.0 0.00 0.00 0.00 22 1017.3
20260906181456 123 161 0.0 0.0 0.00 0.00 0.00 23 1017.4
20260906180952 121 161 0.0 0.0 0.00 0.00 0.00 24 1017.4
20260906180446 123 161 0.0 0.0 0.00 0.00 0.00 23 1017.6
20260906175944 120 161 0.0 0.0 0.00 0.00 0.00 24 1017.7
20260906175439 120 161 0.0 0.0 0.00 0.00 0.00 24 1017.8
20260906174938 120 161 0.0 0.0 0.00 0.00 0.00 25 1017.8
20260906174437 122 161 0.0 0.0 0.00 0.00 0.00 23 1017.8
20260906173932 119 161 0.0 0.0 0.00 0.00 0.00 25 1017.9
20260906173427 118 161 0.0 0.0 0.00 0.00 0.00 26 1018.1
20260906172927 117 161 0.0 0.0 0.00 0.00 0.00 26 1018.2
20260906172424 119 161 0.0 0.0 0.00 0.00 0.00 26 1018.4
20260906171918 118 161 0.0 0.0 0.00 0.00 0.00 26 1018.6
20260906171413 119 161 0.0 0.0 0.00 0.00 0.00 26 1018.7
20260906170909 118 161 0.0 0.0 0.00 0.00 0.00 26 1018.6
20260906170406 114 161 0.0 0.0 0.00 0.00 0.00 29 1018.5
20260906165902 117 161 0.0 0.0 0.00 0.00 0.00 27 1018.7
20260906165401 116 161 0.0 0.0 0.00 0.00 0.00 29 1018.9
20260906164856 117 161 0.0 0.0 0.00 0.00 0.00 28 1019.0
20260906164354 116 161 0.0 0.0 0.00 0.00 0.00 29 1018.9
20260906163845 115 161 0.0 0.0 0.00 0.00 0.00 28 1018.9
20260906163342 115 161 0.0 0.0 0.00 0.00 0.00 29 1019.2
20260906162839 114 161 0.0 0.0 0.00 0.00 0.00 29 1019.1
20260906162338 114 161 0.0 0.0 0.00 0.00 0.00 30 1019.1
20260906161833 114 161 0.0 0.0 0.00 0.00 0.00 29 1019.0
20260906161332 113 161 0.0 0.0 0.00 0.00 0.00 30 1019.1
20260906160831 112 161 0.0 0.0 0.00 0.00 0.00 30 1019.1
20260906160325 112 161 0.0 0.0 0.00 0.00 0.00 32 1019.1
20260906155824 111 162 0.0 0.0 0.00 0.00 0.00 31 1019.1
20260906155317 110 162 0.0 0.0 0.00 0.00 0.00 31 1019.3
20260906154814 111 161 0.0 0.0 0.00 0.00 0.00 32 1019.0
20260906154308 110 161 0.0 0.0 0.00 0.00 0.00 32 1019.1
20260906153806 109 162 0.0 0.0 0.00 0.00 0.00 33 1019.1
20260906153300 108 161 0.0 0.0 0.00 0.00 0.00 34 1019.2
20260906152756 108 162 0.0 0.0 0.00 0.00 0.00 34 1018.9
20260906152250 107 162 0.0 0.0 0.00 0.00 0.00 34 1018.9
20260906151744 107 162 0.0 0.0 0.00 0.00 0.00 34 1019.1
20260906151241 106 161 0.0 0.0 0.00 0.00 0.00 34 1019.0
20260906150736 107 161 0.0 0.0 0.00 0.00 0.00 34 1019.0
20260906150231 106 161 0.0 0.0 0.00 0.00 0.00 35 1018.5
20260906145730 105 162 0.0 0.0 0.00 0.00 0.00 36 1018.6
20260906145229 103 161 0.0 0.0 0.00 0.00 0.00 37 1018.6
20260906144725 102 161 0.0 0.0 0.00 0.00 0.00 40 1018.9
20260906144219 101 161 0.0 0.0 0.00 0.00 0.00 41 1018.9
20260906143718 100 161 0.0 0.0 0.00 0.00 0.00 41 1018.9
20260906143216 99 162 0.0 0.0 0.00 0.00 0.00 43 1018.7
20260906142715 98 161 0.0 0.0 0.00 0.00 0.00 45 1018.6
20260906142210 96 162 0.0 0.0 0.00 0.00 0.00 46 1018.7
20260906141709 95 162 0.0 0.0 0.00 0.00 0.00 48 1018.7
20260906141204 94 161 0.0 0.0 0.00 0.00 0.00 49 1018.5
20260906140703 92 162 0.0 0.0 0.00 0.00 0.00 51 1018.7
20260906140159 91 162 0.0 0.0 0.00 0.00 0.00 52 1018.6
20260906135655 91 162 0.0 0.0 0.00 0.00 0.00 53 1018.7
20260906135151 90 162 0.0 0.0 0.00 0.00 0.00 55 1018.9
20260906134647 89 162 0.0 0.0 0.00 0.00 0.00 56 1018.7
20260906134141 89 162 0.0 0.0 0.00 0.00 0.00 56 1018.7
20260906133632 87 162 0.0 0.0 0.00 0.00 0.00 58 1018.7
20260906133126 86 162 0.0 0.0 0.00 0.00 0.00 62 1018.6
20260906132621 84 162 0.0 0.0 0.00 0.00 0.00 65 1018.6
20260906132117 83 162 0.0 0.0 0.00 0.00 0.00 67 1018.7
20260906131612 82 162 0.0 0.0 0.00 0.00 0.00 70 1018.5
20260906131107 80 162 0.0 0.0 0.00 0.00 0.00 73 1018.4
20260906130603 79 162 0.0 0.0 0.00 0.00 0.00 76 1018.3
20260906130057 78 162 0.0 0.0 0.00 0.00 0.00 78 1018.3
20260906125554 77 162 0.0 0.0 0.00 0.00 0.00 79 1018.2
20260906125054 76 162 0.0 0.0 0.00 0.00 0.00 80 1018.2
20260906124549 75 162 0.0 0.0 0.00 0.00 0.00 83 1018.3
20260906124044 75 162 0.0 0.0 0.00 0.00 0.00 80 1018.2
20260906123543 75 162 0.0 0.0 0.00 0.00 0.00 81 1018.2
20260906123040 74 162 0.0 0.0 0.00 0.00 0.00 81 1018.0
20260906122538 74 162 0.0 0.0 0.00 0.00 0.00 81 1018.0
20260906122035 73 162 0.0 0.0 0.00 0.00 0.00 82 1017.9
20260906121531 72 161 0.0 0.0 0.00 0.00 0.00 84 1017.8
20260906121027 72 161 0.0 0.0 0.00 0.00 0.00 84 1017.8
20260906120521 72 161 0.0 0.0 0.00 0.00 0.00 84 1017.9
20260906120019 72 161 0.0 0.0 0.00 0.00 0.00 84 1017.9
20260906115513 72 161 0.0 0.0 0.00 0.00 0.00 85 1017.7
20260906115008 71 160 0.0 0.0 0.00 0.00 0.00 85 1017.5
20260906114503 72 160 0.0 0.0 0.00 0.00 0.00 85 1017.4
20260906113959 72 160 0.0 0.0 0.00 0.00 0.00 85 1017.7
20260906113457 72 160 0.0 0.0 0.00 0.00 0.00 84 1017.6
20260906112953 72 160 0.0 0.0 0.00 0.00 0.00 85 1017.5
20260906112448 72 160 0.0 0.0 0.00 0.00 0.00 84 1017.6
20260906111944 72 161 0.0 0.0 0.00 0.00 0.00 83 1017.3
20260906111443 73 161 0.0 0.0 0.00 0.00 0.00 83 1017.4
20260906110938 73 161 0.0 0.0 0.00 0.00 0.00 83 1017.5
20260906110433 72 161 0.0 0.0 0.00 0.00 0.00 83 1017.4
20260906105932 72 161 0.0 0.0 0.00 0.00 0.00 84 1017.4
20260906105428 72 161 0.0 0.0 0.00 0.00 0.00 83 1017.4
20260906104924 73 161 0.0 0.0 0.00 0.00 0.00 83 1017.3
20260906104422 72 161 0.0 0.0 0.00 0.00 0.00 83 1017.5
20260906103922 72 161 0.0 0.0 0.00 0.00 0.00 83 1017.4
20260906103420 73 161 0.0 0.0 0.00 0.00 0.00 83 1017.3
20260906102916 73 161 0.0 0.0 0.00 0.00 0.00 82 1017.2
20260906102415 73 161 0.0 0.0 0.00 0.00 0.00 81 1017.2
20260906101910 73 161 0.0 0.0 0.00 0.00 0.00 82 1017.2
20260906101405 73 161 0.0 0.0 0.00 0.00 0.00 82 1017.3
20260906100901 72 160 0.0 0.0 0.00 0.00 0.00 83 1017.0
20260906100400 71 161 0.0 0.0 0.00 0.00 0.00 85 1017.1
20260906095855 71 161 0.0 0.0 0.00 0.00 0.00 84 1017.2
20260906095350 72 160 0.0 0.0 0.00 0.00 0.00 84 1017.1
20260906094850 72 160 0.0 0.0 0.00 0.00 0.00 84 1017.0
20260906094344 72 160 0.0 0.0 0.00 0.00 0.00 83 1017.1
20260906093841 72 160 0.0 0.0 0.00 0.00 0.00 82 1016.9
20260906093336 72 161 0.0 0.0 0.00 0.00 0.00 83 1017.1
20260906092831 72 161 0.0 0.0 0.00 0.00 0.00 83 1017.1
20260906092325 72 161 0.0 0.0 0.00 0.00 0.00 83 1017.1
20260906091821 72 161 0.0 0.0 0.00 0.00 0.00 84 1017.0
20260906091317 72 161 0.0 0.0 0.00 0.00 0.00 84 1017.0
20260906090813 72 161 0.0 0.0 0.00 0.00 0.00 83 1016.9
20260906090312 73 161 0.0 0.0 0.00 0.00 0.00 83 1017.0
20260906085807 73 161 0.0 0.0 0.00 0.00 0.00 82 1016.8
20260906085307 73 161 0.0 0.0 0.00 0.00 0.00 82 1016.9
20260906084801 73 161 0.0 0.0 0.00 0.00 0.00 81 1016.9
20260906084301 73 161 0.0 0.0 0.00 0.00 0.00 81 1016.9
20260906083755 74 161 0.0 0.0 0.00 0.00 0.00 80 1016.9
20260906083251 74 161 0.0 0.0 0.00 0.00 0.00 80 1016.9
20260906082745 74 161 0.0 0.0 0.00 0.00 0.00 79 1016.9
20260906082241 75 161 0.0 0.0 0.00 0.00 0.00 78 1016.8
20260906081736 75 161 0.0 0.0 0.00 0.00 0.00 77 1017.0
20260906081230 76 161 0.0 0.0 0.00 0.00 0.00 76 1017.0
20260906080727 77 161 0.0 0.0 0.00 0.00 0.00 74 1016.9
20260906080224 77 161 0.0 0.0 0.00 0.00 0.00 72 1017.0
20260906075717 76 161 0.0 0.0 0.00 0.00 0.00 73 1016.9
20260906075212 76 161 0.0 0.0 0.00 0.00 0.00 75 1016.9
20260906074707 75 161 0.0 0.0 0.00 0.00 0.00 78 1016.9
20260906074206 75 161 0.0 0.0 0.00 0.00 0.00 78 1017.1
20260906073701 74 161 0.0 0.0 0.00 0.00 0.00 80 1017.0
20260906073157 75 161 0.0 0.0 0.00 0.00 0.00 80 1017.0
20260906072652 75 161 0.0 0.0 0.00 0.00 0.00 79 1016.7
20260906072148 75 161 0.0 0.0 0.00 0.00 0.00 79 1017.1
20260906071644 75 161 0.0 0.0 0.00 0.00 0.00 80 1017.3
20260906071143 74 161 0.0 0.0 0.00 0.00 0.00 80 1017.1
20260906070640 75 161 0.0 0.0 0.00 0.00 0.00 80 1017.0
20260906070136 75 161 0.0 0.0 0.00 0.00 0.00 80 1017.0
20260906065635 75 161 0.0 0.0 0.00 0.00 0.00 80 1017.2
20260906065130 75 161 0.0 0.0 0.00 0.00 0.00 80 1016.9
20260906064626 75 161 0.0 0.0 0.00 0.00 0.00 79 1017.0
20260906064121 75 161 0.0 0.0 0.00 0.00 0.00 78 1017.1
20260906063616 76 161 0.0 0.0 0.00 0.00 0.00 77 1017.2
20260906063112 76 161 0.0 0.0 0.00 0.00 0.00 77 1017.4
20260906062608 76 161 0.0 0.0 0.00 0.00 0.00 78 1017.1
20260906062106 76 161 0.0 0.0 0.00 0.00 0.00 78 1017.1
20260906061603 76 161 0.0 0.0 0.00 0.00 0.00 78 1017.1
20260906061102 76 161 0.0 0.0 0.00 0.00 0.00 77 1017.3
20260906060559 76 161 0.0 0.0 0.00 0.00 0.00 77 1017.4
20260906060056 76 161 0.0 0.0 0.00 0.00 0.00 77 1017.5
20260906055551 76 161 0.0 0.0 0.00 0.00 0.00 76 1017.4
20260906055047 76 161 0.0 0.0 0.00 0.00 0.00 76 1017.4
20260906054541 76 161 0.0 0.0 0.00 0.00 0.00 76 1017.3
20260906054037 76 161 0.0 0.0 0.00 0.00 0.00 75 1017.3
20260906053533 77 161 0.0 0.0 0.00 0.00 0.00 74 1017.4
20260906053028 77 161 0.0 0.0 0.00 0.00 0.00 74 1017.4
20260906052524 77 161 0.0 0.0 0.00 0.00 0.00 73 1017.2
20260906052021 77 161 0.0 0.0 0.00 0.00 0.00 73 1017.2
20260906051516 78 161 0.0 0.0 0.00 0.00 0.00 73 1017.4
20260906051012 78 161 0.0 0.0 0.00 0.00 0.00 72 1017.1
20260906050512 78 161 0.0 0.0 0.00 0.00 0.00 71 1017.3
20260906050006 78 161 0.0 0.0 0.00 0.00 0.00 71 1017.3
20260906045504 78 161 0.0 0.0 0.00 0.00 0.00 71 1017.0
20260906044955 78 161 0.0 0.0 0.00 0.00 0.00 70 1017.3
20260906044450 78 161 0.0 0.0 0.00 0.00 0.00 71 1017.2
20260906043946 79 161 0.0 0.0 0.00 0.00 0.00 70 1017.2
20260906043441 80 161 0.0 0.0 0.00 0.00 0.00 69 1017.1
20260906042937 80 161 0.0 0.0 0.00 0.00 0.00 67 1017.3
20260906042436 80 161 0.0 0.0 0.00 0.00 0.00 65 1017.2
20260906041931 80 161 0.0 0.0 0.00 0.00 0.00 66 1017.3
20260906041427 81 161 0.0 0.0 0.00 0.00 0.00 66 1017.1
20260906040926 81 161 0.0 0.0 0.00 0.00 0.00 65 1017.1
20260906040421 81 161 0.0 0.0 0.00 0.00 0.00 64 1017.0
20260906035911 82 161 0.0 0.0 0.00 0.00 0.00 63 1017.0
20260906035406 82 161 0.0 0.0 0.00 0.00 0.00 63 1016.8
20260906034902 82 161 0.0 0.0 0.00 0.00 0.00 62 1016.8
20260906034356 82 161 0.0 0.0 0.00 0.00 0.00 61 1016.9
20260906033852 82 161 0.0 0.0 0.00 0.00 0.00 61 1017.0
20260906033351 83 161 0.0 0.0 0.00 0.00 0.00 61 1017.0
20260906032848 83 161 0.0 0.0 0.00 0.00 0.00 60 1017.1
20260906032343 83 161 0.0 0.0 0.00 0.00 0.00 60 1017.0
20260906031838 83 161 0.0 0.0 0.00 0.00 0.00 60 1017.0
20260906031334 83 161 0.0 0.0 0.00 0.00 0.00 59 1017.1
20260906030833 83 161 0.0 0.0 0.00 0.00 0.00 60 1017.0
20260906030328 82 161 0.0 0.0 0.00 0.00 0.00 60 1017.0
20260906025823 82 161 0.0 0.0 0.00 0.00 0.00 60 1016.6
20260906025317 82 161 0.0 0.0 0.00 0.00 0.00 60 1016.7
20260906024816 83 161 0.0 0.0 0.00 0.00 0.00 59 1016.7
20260906024315 83 161 0.0 0.0 0.00 0.00 0.00 58 1016.6
20260906023811 84 161 0.0 0.0 0.00 0.00 0.00 57 1016.6
20260906023306 84 161 0.0 0.0 0.00 0.00 0.00 57 1016.7
20260906022801 84 161 0.0 0.0 0.00 0.00 0.00 58 1016.7
20260906022257 84 161 0.0 0.0 0.00 0.00 0.00 56 1016.5
20260906021752 84 161 0.0 0.0 0.00 0.00 0.00 56 1016.6
20260906021246 85 161 0.0 0.0 0.00 0.00 0.00 55 1016.5
20260906020741 85 161 0.0 0.0 0.00 0.00 0.00 56 1016.2
20260906020235 84 161 0.0 0.0 0.00 0.00 0.00 56 1016.3
20260906015730 84 161 0.0 0.0 0.00 0.00 0.00 56 1016.2
20260906015228 84 161 0.0 0.0 0.00 0.00 0.00 56 1016.4
20260906014723 84 161 0.0 0.0 0.00 0.00 0.00 57 1016.3
20260906014219 84 161 0.0 0.0 0.00 0.00 0.00 58 1016.0
20260906013715 84 161 0.0 0.0 0.00 0.00 0.00 57 1015.9
20260906013214 85 161 0.0 0.0 0.00 0.00 0.00 55 1015.8
20260906012709 85 161 0.0 0.0 0.00 0.00 0.00 56 1015.7
20260906012204 86 161 0.0 0.0 0.00 0.00 0.00 55 1015.8
20260906011659 86 161 0.0 0.0 0.00 0.00 0.00 53 1015.8
20260906011154 87 161 0.0 0.0 0.00 0.00 0.00 52 1016.0
20260906010650 87 161 0.0 0.0 0.00 0.00 0.00 53 1015.7
20260906010146 88 161 0.0 0.0 0.00 0.00 0.00 54 1015.9
20260906005645 89 161 0.0 0.0 0.00 0.00 0.00 52 1015.7
20260906005144 89 161 0.0 0.0 0.00 0.00 0.00 50 1015.6
20260906004643 90 161 0.0 0.0 0.00 0.00 0.00 48 1015.8
20260906004139 91 161 0.0 0.0 0.00 0.00 0.00 47 1015.6
20260906003634 93 161 0.0 0.0 0.00 0.00 0.00 46 1015.4
20260906003130 93 161 0.0 0.0 0.00 0.00 0.00 44 1015.6
20260906002625 95 161 0.0 0.0 0.00 0.00 0.00 42 1015.7
20260906002119 95 161 0.0 0.0 0.00 0.00 0.00 41 1015.7
20260906001615 95 161 0.0 0.0 0.00 0.00 0.00 41 1015.6
20260906001109 96 161 0.0 0.0 0.00 0.00 0.00 41 1015.5
20260906000605 97 161 0.0 0.0 0.00 0.00 0.00 39 1015.5
20260906000100 99 161 0.0 0.0 0.00 0.00 0.00 39 1015.7
20260905235559 99 161 0.0 0.0 0.00 0.00 0.00 37 1015.6
20260905235054 101 161 0.0 0.0 0.00 0.00 0.00 36 1015.6
20260905234550 102 161 0.0 0.0 0.00 0.00 0.00 35 1015.6
20260905234045 102 161 0.0 0.0 0.00 0.00 0.00 34 1015.6
20260905233544 103 161 0.0 0.0 0.00 0.00 0.00 34 1015.5
20260905233044 105 161 0.0 0.0 0.00 0.00 0.00 34 1015.5
20260905232540 106 161 0.0 0.0 0.00 0.00 0.00 31 1015.5
20260905232035 111 162 0.0 0.0 0.00 0.00 0.00 28 1015.5
20260905231530 114 162 0.0 0.0 0.00 0.00 0.00 28 1015.5
20260905231027 114 162 0.0 0.0 0.00 0.00 0.00 26 1015.5
20260905230526 114 162 0.0 0.0 0.00 0.00 0.00 26 1015.5
20260905230025 116 162 0.0 0.0 0.00 0.00 0.00 25 1015.4
20260905225519 116 162 0.0 0.0 0.00 0.00 0.00 25 1015.4
20260905225015 116 162 0.0 0.0 0.00 0.00 0.00 26 1015.3
20260905224509 118 162 0.0 0.0 0.00 0.00 0.00 24 1015.3
20260905224008 120 162 0.0 0.0 0.00 0.00 0.00 24 1015.3
20260905223501 121 162 0.0 0.0 0.00 0.00 0.00 23 1015.5
20260905222956 124 162 0.0 0.0 0.00 0.00 0.00 22 1015.4
20260905222456 124 162 0.0 0.0 0.00 0.00 0.00 22 1015.4
20260905221951 122 162 0.0 0.0 0.00 0.00 0.00 22 1015.4
20260905221448 126 162 0.0 0.0 0.00 0.00 0.00 22 1015.5
20260905220944 125 162 0.0 0.0 0.00 0.00 0.00 21 1015.5
20260905220440 125 162 0.0 0.0 0.00 0.00 0.00 21 1015.6
20260905215938 124 162 0.0 0.0 0.00 0.00 0.00 21 1015.7
20260905215434 125 162 0.0 0.0 0.00 0.00 0.00 22 1015.6
20260905214930 126 162 0.0 0.0 0.00 0.00 0.00 21 1015.5
20260905214425 126 162 0.0 0.0 0.00 0.00 0.00 21 1015.7
20260905213920 127 162 0.0 0.0 0.00 0.00 0.00 21 1015.8
20260905213416 126 162 0.0 0.0 0.00 0.00 0.00 21 1015.7
20260905212911 125 162 0.0 0.0 0.00 0.00 0.00 21 1015.8
20260905212406 123 162 0.0 0.0 0.00 0.00 0.00 22 1015.7
20260905211905 122 162 0.0 0.0 0.00 0.00 0.00 22 1015.8
20260905211401 124 162 0.0 0.0 0.00 0.00 0.00 22 1016.0
20260905210857 122 162 0.0 0.0 0.00 0.00 0.00 22 1016.2
20260905210356 121 162 0.0 0.0 0.00 0.00 0.00 22 1016.0
20260905205855 117 162 0.0 0.0 0.00 0.00 0.00 24 1016.0
20260905205350 115 161 0.0 0.0 0.00 0.00 0.00 26 1016.5
20260905204844 114 162 0.0 0.0 0.00 0.00 0.00 26 1016.4
20260905204341 114 161 0.0 0.0 0.00 0.00 0.00 26 1016.6
20260905203838 120 162 0.0 0.0 0.00 0.00 0.00 24 1016.5
20260905203335 124 162 0.0 1.0 0.00 0.00 0.00 23 1016.6
20260905202825 130 162 0.0 0.0 0.00 0.00 0.00 21 1016.7
20260905202319 133 162 0.0 0.0 0.00 0.00 0.00 20 1016.8
20260905201815 131 161 0.0 0.0 0.00 0.00 0.00 20 1016.8
20260905201310 128 161 0.0 0.0 0.00 0.00 0.00 21 1017.0
20260905200804 127 162 0.0 0.0 0.00 0.00 0.00 21 1016.9
20260905200301 127 161 0.0 0.0 0.00 0.00 0.00 21 1016.8
20260905195759 127 161 0.0 0.0 0.00 0.00 0.00 21 1017.0
20260905195254 125 161 0.0 0.0 0.00 0.00 0.00 21 1017.1
20260905194749 125 161 0.0 0.0 0.00 0.00 0.00 22 1017.1
20260905194249 122 161 0.0 0.0 0.00 0.00 0.00 23 1017.2
20260905193749 123 161 0.0 0.0 0.00 0.00 0.00 24 1017.4
20260905193243 117 161 0.0 0.0 0.00 0.00 0.00 26 1017.3
20260905192738 114 162 0.0 0.0 0.00 0.00 0.00 29 1017.3
20260905192235 116 161 0.0 0.0 0.00 0.00 0.00 28 1017.5
20260905191735 118 161 0.0 0.0 0.00 0.00 0.00 26 1017.7
20260905191233 117 161 0.0 0.0 0.00 0.00 0.00 27 1017.6
20260905190732 116 161 0.0 0.0 0.00 0.00 0.00 29 1017.7
20260905190231 122 161 0.0 0.0 0.00 0.00 0.00 25 1017.6
20260905185730 125 161 0.0 0.0 0.00 0.00 0.00 23 1017.9
20260905185225 124 161 0.0 0.0 0.00 0.00 0.00 23 1017.8
20260905184724 123 161 0.0 0.0 0.00 0.00 0.00 24 1018.0
20260905184224 120 161 0.0 0.0 0.00 0.00 0.00 24 1018.0
20260905183718 118 161 0.0 0.0 0.00 0.00 0.00 26 1017.8